N837SC CYYZ-CYDF

Flight info

Callsign N837SC
Flight time 2h 4m
Altitude 45000
Route VERDO7 LORKA Q907 MIILS DCT USBAM DCT FROSS DCT YDF DCT
Aircraft C750/M-SBDE3FGHRWXY/S

Departure

Time 2026-05-07 08:47
Airport Toronto Pearson International Airport (CYYZ)

Arrival

Time 2026-05-07 10:51
Airport Deer Lake Airport (CYDF)
Time Latitude Longitude Altitude Speed Heading
2026-05-07 08:14 43.68972 -79.64999 558 ft 0 kts 360°
2026-05-07 08:38 43.68973 -79.64998 558 ft 0 kts 11°
2026-05-07 08:38 43.68974 -79.64992 564 ft 2 kts 63°
2026-05-07 08:38 43.68980 -79.64975 558 ft 0 kts 63°
2026-05-07 08:39 43.68987 -79.64956 558 ft 7 kts 63°
2026-05-07 08:40 43.69003 -79.64861 558 ft 13 kts 108°
2026-05-07 08:40 43.68982 -79.64746 565 ft 16 kts 45°
2026-05-07 08:40 43.69080 -79.64606 562 ft 25 kts 46°
2026-05-07 08:40 43.69218 -79.64409 566 ft 30 kts 47°
2026-05-07 08:41 43.69337 -79.64226 564 ft 24 kts 54°
2026-05-07 08:41 43.69354 -79.64031 558 ft 22 kts 136°
2026-05-07 08:41 43.69246 -79.63892 559 ft 20 kts 136°
2026-05-07 08:41 43.69146 -79.63762 560 ft 19 kts 136°
2026-05-07 08:42 43.69060 -79.63649 563 ft 16 kts 136°
2026-05-07 08:42 43.68981 -79.63546 562 ft 16 kts 136°
2026-05-07 08:42 43.68905 -79.63447 563 ft 14 kts 137°
2026-05-07 08:42 43.68828 -79.63348 560 ft 17 kts 136°
2026-05-07 08:43 43.68730 -79.63219 559 ft 21 kts 136°
2026-05-07 08:43 43.68616 -79.63072 558 ft 24 kts 137°
2026-05-07 08:43 43.68489 -79.62903 559 ft 26 kts 136°
2026-05-07 08:43 43.68349 -79.62723 561 ft 28 kts 136°
2026-05-07 08:44 43.68200 -79.62527 560 ft 31 kts 136°
2026-05-07 08:44 43.68035 -79.62320 559 ft 32 kts 137°
2026-05-07 08:44 43.67865 -79.62148 565 ft 29 kts 157°
2026-05-07 08:44 43.67720 -79.61975 563 ft 26 kts 136°
2026-05-07 08:45 43.67639 -79.61868 563 ft 12 kts 136°
2026-05-07 08:45 43.67583 -79.61794 563 ft 10 kts 142°
2026-05-07 08:45 43.67535 -79.61799 568 ft 5 kts 223°
2026-05-07 08:45 43.67520 -79.61822 569 ft 2 kts 227°
2026-05-07 08:46 43.67508 -79.61839 571 ft 4 kts 227°
2026-05-07 08:46 43.67487 -79.61870 568 ft 6 kts 227°
2026-05-07 08:46 43.67453 -79.61930 572 ft 10 kts 270°
2026-05-07 08:46 43.67560 -79.62081 566 ft 58 kts 319°
2026-05-07 08:47 43.68093 -79.62766 648 ft 129 kts 317°
2026-05-07 08:47 43.68786 -79.63619 1157 ft 140 kts 318°
2026-05-07 08:47 43.69558 -79.64614 1566 ft 165 kts 316°
2026-05-07 08:47 43.70446 -79.65791 1884 ft 192 kts 316°
2026-05-07 08:48 43.71522 -79.67103 2154 ft 221 kts 322°
2026-05-07 08:48 43.73088 -79.67765 2452 ft 255 kts
2026-05-07 08:48 43.74750 -79.66911 3372 ft 263 kts 32°
2026-05-07 08:48 43.76160 -79.65244 4275 ft 270 kts 42°
2026-05-07 08:49 43.77518 -79.63388 5174 ft 277 kts 42°
2026-05-07 08:49 43.78935 -79.61562 6135 ft 280 kts 39°
2026-05-07 08:49 43.80397 -79.59752 7065 ft 284 kts 39°
2026-05-07 08:49 43.81554 -79.57478 7891 ft 299 kts 67°
2026-05-07 08:50 43.81851 -79.54629 8937 ft 303 kts 94°
2026-05-07 08:50 43.81308 -79.51856 9842 ft 305 kts 112°
2026-05-07 08:50 43.80517 -79.49026 10465 ft 319 kts 114°
2026-05-07 08:50 43.79694 -79.46086 10688 ft 345 kts 113°
2026-05-07 08:51 43.78825 -79.42850 10819 ft 370 kts 112°
2026-05-07 08:51 43.77924 -79.39474 11466 ft 375 kts 112°
2026-05-07 08:51 43.76998 -79.36071 12143 ft 380 kts 113°
2026-05-07 08:51 43.76050 -79.32623 12820 ft 385 kts 114°
2026-05-07 08:52 43.75157 -79.29096 13409 ft 394 kts 108°
2026-05-07 08:52 43.74957 -79.25278 13994 ft 401 kts 89°
2026-05-07 08:52 43.75128 -79.21432 14549 ft 407 kts 86°
2026-05-07 08:52 43.75340 -79.17499 15086 ft 413 kts 86°
2026-05-07 08:53 43.75532 -79.13507 15637 ft 419 kts 87°
2026-05-07 08:53 43.75704 -79.09445 16188 ft 425 kts 88°
2026-05-07 08:53 43.75887 -79.05338 16737 ft 431 kts 87°
2026-05-07 08:53 43.76084 -79.01171 17313 ft 437 kts 87°
2026-05-07 08:54 43.76278 -78.96944 17904 ft 443 kts 88°
2026-05-07 08:54 43.76464 -78.92661 18460 ft 449 kts 88°
2026-05-07 08:54 43.76654 -78.88323 19012 ft 454 kts 88°
2026-05-07 08:54 43.76847 -78.83999 19563 ft 459 kts 88°
2026-05-07 08:55 43.77101 -78.79571 20074 ft 465 kts 83°
2026-05-07 08:55 43.77857 -78.75185 20633 ft 469 kts 71°
2026-05-07 08:55 43.79116 -78.71006 21181 ft 472 kts 62°
2026-05-07 08:55 43.80558 -78.66899 21726 ft 476 kts 62°
2026-05-07 08:56 43.81994 -78.62735 22293 ft 481 kts 62°
2026-05-07 08:56 43.83433 -78.58530 22826 ft 486 kts 62°
2026-05-07 08:56 43.84883 -78.54330 23408 ft 491 kts 62°
2026-05-07 08:56 43.86371 -78.50038 23815 ft 497 kts 62°
2026-05-07 08:57 43.87864 -78.45695 24283 ft 501 kts 62°
2026-05-07 08:57 43.89369 -78.41290 24745 ft 505 kts 62°
2026-05-07 08:57 43.90882 -78.36875 25191 ft 509 kts 62°
2026-05-07 08:57 43.92412 -78.32419 25647 ft 513 kts 62°
2026-05-07 08:58 43.93945 -78.27931 26106 ft 517 kts 62°
2026-05-07 08:58 43.95495 -78.23378 26557 ft 522 kts 62°
2026-05-07 08:58 43.97036 -78.18850 27007 ft 526 kts 62°
2026-05-07 08:58 43.98603 -78.14245 27469 ft 530 kts 63°
2026-05-07 08:59 44.00185 -78.09584 27993 ft 534 kts 63°
2026-05-07 08:59 44.01766 -78.04912 28530 ft 536 kts 63°
2026-05-07 08:59 44.03363 -78.00187 28971 ft 541 kts 63°
2026-05-07 08:59 44.04968 -77.95436 29390 ft 545 kts 63°
2026-05-07 09:00 44.06590 -77.90625 29703 ft 552 kts 63°
2026-05-07 09:00 44.08199 -77.85836 30122 ft 556 kts 63°
2026-05-07 09:00 44.09839 -77.80949 30502 ft 559 kts 63°
2026-05-07 09:00 44.11487 -77.76033 30880 ft 562 kts 63°
2026-05-07 09:01 44.13137 -77.71101 31446 ft 560 kts 63°
2026-05-07 09:01 44.14775 -77.66192 32024 ft 558 kts 63°
2026-05-07 09:01 44.16410 -77.61287 32554 ft 558 kts 63°
2026-05-07 09:01 44.18045 -77.56373 33040 ft 558 kts 64°
2026-05-07 09:02 44.19677 -77.51491 33545 ft 557 kts 63°
2026-05-07 09:02 44.21614 -77.46821 34038 ft 555 kts 54°
2026-05-07 09:02 44.23689 -77.42284 34526 ft 553 kts 55°
2026-05-07 09:02 44.25728 -77.37730 35014 ft 553 kts 56°
2026-05-07 09:03 44.27759 -77.33162 35489 ft 552 kts 55°
2026-05-07 09:03 44.29797 -77.28633 36047 ft 550 kts 55°
2026-05-07 09:03 44.31811 -77.24177 36609 ft 547 kts 55°
2026-05-07 09:03 44.33833 -77.19658 37062 ft 547 kts 56°
2026-05-07 09:04 44.35844 -77.15135 37466 ft 549 kts 56°
2026-05-07 09:04 44.37857 -77.10618 37938 ft 549 kts 56°
2026-05-07 09:04 44.39882 -77.06087 38458 ft 548 kts 56°
2026-05-07 09:04 44.41902 -77.01550 38898 ft 547 kts 56°
2026-05-07 09:05 44.43907 -76.97026 39330 ft 546 kts 56°
2026-05-07 09:05 44.45902 -76.92520 39825 ft 544 kts 56°
2026-05-07 09:05 44.47884 -76.88049 40294 ft 542 kts 56°
2026-05-07 09:05 44.49870 -76.83561 40744 ft 541 kts 56°
2026-05-07 09:06 44.51847 -76.79077 41190 ft 539 kts 56°
2026-05-07 09:06 44.53151 -76.76114 41498 ft 538 kts 56°
2026-05-07 09:06 44.55118 -76.71647 41926 ft 537 kts 56°
2026-05-07 09:06 44.57714 -76.65742 42503 ft 536 kts 56°
2026-05-07 09:07 44.59662 -76.61298 42964 ft 534 kts 56°
2026-05-07 09:07 44.60976 -76.58296 43310 ft 532 kts 56°
2026-05-07 09:07 44.62904 -76.53888 43824 ft 529 kts 57°
2026-05-07 09:07 44.64798 -76.49552 44257 ft 527 kts 57°
2026-05-07 09:08 44.66719 -76.45149 44660 ft 526 kts 57°
2026-05-07 09:08 44.68633 -76.40752 44904 ft 528 kts 57°
2026-05-07 09:08 44.72516 -76.31817 44881 ft 542 kts 57°
2026-05-07 09:09 44.76434 -76.22666 44853 ft 556 kts 60°
2026-05-07 09:09 44.79384 -76.12479 44891 ft 567 kts 72°
2026-05-07 09:10 44.81983 -76.01929 44883 ft 571 kts 69°
2026-05-07 09:10 44.84791 -75.91543 44883 ft 569 kts 70°
2026-05-07 09:11 44.87416 -75.80979 44878 ft 574 kts 70°
2026-05-07 09:11 44.90216 -75.70345 44880 ft 581 kts 70°
2026-05-07 09:12 44.92906 -75.59598 44874 ft 586 kts 70°
2026-05-07 09:12 44.95705 -75.48727 44878 ft 589 kts 70°
2026-05-07 09:13 44.98448 -75.37784 44877 ft 590 kts 71°
2026-05-07 09:13 45.01211 -75.26861 44858 ft 590 kts 70°
2026-05-07 09:14 45.03928 -75.15982 44863 ft 589 kts 71°
2026-05-07 09:14 45.06652 -75.05073 44866 ft 589 kts 71°
2026-05-07 09:15 45.09365 -74.94131 44852 ft 589 kts 71°
2026-05-07 09:15 45.12073 -74.83164 44845 ft 589 kts 71°
2026-05-07 09:16 45.14886 -74.72244 44849 ft 590 kts 69°
2026-05-07 09:16 45.17772 -74.61439 44842 ft 588 kts 70°
2026-05-07 09:17 45.20670 -74.50579 44833 ft 588 kts 69°
2026-05-07 09:17 45.23549 -74.39725 44824 ft 589 kts 70°
2026-05-07 09:18 45.26432 -74.28808 44824 ft 590 kts 70°
2026-05-07 09:18 45.29305 -74.17885 44835 ft 588 kts 70°
2026-05-07 09:19 45.32140 -74.07049 44828 ft 589 kts 70°
2026-05-07 09:19 45.34985 -73.96129 44826 ft 589 kts 70°
2026-05-07 09:20 45.37816 -73.85208 44819 ft 589 kts 70°
2026-05-07 09:20 45.40641 -73.74263 44839 ft 589 kts 70°
2026-05-07 09:21 45.43430 -73.63401 44813 ft 586 kts 70°
2026-05-07 09:21 45.46221 -73.52490 44795 ft 587 kts 70°
2026-05-07 09:22 45.49005 -73.41545 44795 ft 586 kts 71°
2026-05-07 09:22 45.51783 -73.30579 44796 ft 587 kts 71°
2026-05-07 09:23 45.54526 -73.19693 44808 ft 587 kts 71°
2026-05-07 09:23 45.57276 -73.08731 44827 ft 587 kts 71°
2026-05-07 09:24 45.60026 -72.97714 44805 ft 586 kts 71°
2026-05-07 09:24 45.62742 -72.86783 44820 ft 588 kts 71°
2026-05-07 09:25 45.65470 -72.75746 44837 ft 588 kts 71°
2026-05-07 09:25 45.68190 -72.64689 44820 ft 587 kts 71°
2026-05-07 09:26 45.70897 -72.53636 44815 ft 588 kts 71°
2026-05-07 09:26 45.73569 -72.42667 44811 ft 587 kts 71°
2026-05-07 09:27 45.76250 -72.31612 44805 ft 587 kts 71°
2026-05-07 09:28 45.80248 -72.15015 44812 ft 586 kts 72°
2026-05-07 09:28 45.82899 -72.03945 44810 ft 586 kts 72°
2026-05-07 09:29 45.85527 -71.92915 44805 ft 587 kts 72°
2026-05-07 09:29 45.88161 -71.81803 44812 ft 587 kts 72°
2026-05-07 09:30 45.90768 -71.70756 44825 ft 587 kts 72°
2026-05-07 09:30 45.93385 -71.59604 44821 ft 587 kts 72°
2026-05-07 09:31 45.95982 -71.48480 44808 ft 586 kts 72°
2026-05-07 09:31 45.98558 -71.37395 44807 ft 587 kts 72°
2026-05-07 09:32 46.01134 -71.26245 44798 ft 587 kts 72°
2026-05-07 09:32 46.03707 -71.15058 44801 ft 587 kts 72°
2026-05-07 09:33 46.06258 -71.03904 44791 ft 586 kts 72°
2026-05-07 09:33 46.08776 -70.92844 44787 ft 585 kts 72°
2026-05-07 09:34 46.11307 -70.81659 44792 ft 586 kts 72°
2026-05-07 09:34 46.13829 -70.70465 44785 ft 586 kts 72°
2026-05-07 09:35 46.16331 -70.59294 44777 ft 585 kts 73°
2026-05-07 09:35 46.18807 -70.48187 44779 ft 583 kts 73°
2026-05-07 09:36 46.21285 -70.37007 44777 ft 583 kts 73°
2026-05-07 09:36 46.23749 -70.25836 44773 ft 583 kts 73°
2026-05-07 09:37 46.26135 -70.14709 44768 ft 583 kts 74°
2026-05-07 09:37 46.28514 -70.03482 44760 ft 583 kts 73°
2026-05-07 09:38 46.30899 -69.92268 44766 ft 584 kts 74°
2026-05-07 09:38 46.33246 -69.81069 44764 ft 584 kts 74°
2026-05-07 09:39 46.35609 -69.69820 44762 ft 583 kts 74°
2026-05-07 09:39 46.37944 -69.58574 44771 ft 583 kts 74°
2026-05-07 09:40 46.40280 -69.47317 44756 ft 582 kts 74°
2026-05-07 09:40 46.42593 -69.36061 44755 ft 582 kts 74°
2026-05-07 09:41 46.44885 -69.24883 44753 ft 582 kts 74°
2026-05-07 09:41 46.47183 -69.13582 44753 ft 582 kts 74°
2026-05-07 09:42 46.49469 -69.02297 44766 ft 582 kts 75°
2026-05-07 09:42 46.51722 -68.91091 44758 ft 580 kts 75°
2026-05-07 09:43 46.53982 -68.79807 44755 ft 581 kts 75°
2026-05-07 09:43 46.56224 -68.68534 44752 ft 581 kts 75°
2026-05-07 09:44 46.58446 -68.57307 44755 ft 581 kts 75°
2026-05-07 09:44 46.60670 -68.45997 44739 ft 579 kts 75°
2026-05-07 09:45 46.62875 -68.34722 44733 ft 578 kts 75°
2026-05-07 09:45 46.65056 -68.23503 44727 ft 579 kts 75°
2026-05-07 09:46 46.67239 -68.12205 44732 ft 579 kts 75°
2026-05-07 09:46 46.69413 -68.00890 44726 ft 579 kts 75°
2026-05-07 09:47 46.71570 -67.89597 44727 ft 579 kts 76°
2026-05-07 09:47 46.73711 -67.78320 44722 ft 579 kts 76°
2026-05-07 09:48 46.75852 -67.66985 44710 ft 579 kts 76°
2026-05-07 09:48 46.77979 -67.55661 44711 ft 579 kts 76°
2026-05-07 09:49 46.80096 -67.44310 44699 ft 579 kts 76°
2026-05-07 09:49 46.82185 -67.33052 44717 ft 578 kts 76°
2026-05-07 09:50 46.84274 -67.21711 44711 ft 578 kts 76°
2026-05-07 09:50 46.86356 -67.10352 44705 ft 578 kts 76°
2026-05-07 09:51 46.88591 -66.99063 44687 ft 578 kts 73°
2026-05-07 09:51 46.91039 -66.87855 44686 ft 577 kts 73°
2026-05-07 09:52 46.93417 -66.76633 44683 ft 577 kts 73°
2026-05-07 09:52 46.95808 -66.65490 44669 ft 577 kts 73°
2026-05-07 09:53 46.98179 -66.54245 44642 ft 577 kts 74°
2026-05-07 09:53 47.00543 -66.43057 44642 ft 577 kts 73°
2026-05-07 09:54 47.02894 -66.31819 44640 ft 577 kts 74°
2026-05-07 09:54 47.04859 -66.22396 44641 ft 577 kts 74°
2026-05-07 09:55 47.07184 -66.11189 44633 ft 577 kts 74°
2026-05-07 09:55 47.09506 -65.99924 44631 ft 577 kts 74°
2026-05-07 09:56 47.11824 -65.88630 44623 ft 577 kts 74°
2026-05-07 09:56 47.14129 -65.77318 44618 ft 576 kts 74°
2026-05-07 09:57 47.16402 -65.66110 44610 ft 575 kts 75°
2026-05-07 09:57 47.18678 -65.54822 44614 ft 575 kts 75°
2026-05-07 09:58 47.20932 -65.43578 44617 ft 576 kts 75°
2026-05-07 09:58 47.23188 -65.32258 44624 ft 576 kts 75°
2026-05-07 09:59 47.25435 -65.20918 44612 ft 577 kts 75°
2026-05-07 09:59 47.27678 -65.09536 44607 ft 578 kts 75°
2026-05-07 10:00 47.29893 -64.98222 44612 ft 578 kts 75°
2026-05-07 10:00 47.32114 -64.86813 44614 ft 578 kts 75°
2026-05-07 10:01 47.34320 -64.75414 44626 ft 577 kts 75°
2026-05-07 10:01 47.36490 -64.64131 44633 ft 571 kts 75°
2026-05-07 10:02 47.38654 -64.52821 44640 ft 573 kts 75°
2026-05-07 10:02 47.40812 -64.41470 44646 ft 573 kts 75°
2026-05-07 10:03 47.42955 -64.30126 44651 ft 573 kts 75°
2026-05-07 10:03 47.45086 -64.18783 44659 ft 573 kts 75°
2026-05-07 10:04 47.47201 -64.07446 44649 ft 570 kts 75°
2026-05-07 10:04 47.49292 -63.96186 44644 ft 571 kts 75°
2026-05-07 10:05 47.51382 -63.84849 44646 ft 570 kts 76°
2026-05-07 10:05 47.53450 -63.73570 44647 ft 571 kts 76°
2026-05-07 10:06 47.55517 -63.62220 44662 ft 568 kts 76°
2026-05-07 10:06 47.57564 -63.50916 44661 ft 567 kts 76°
2026-05-07 10:07 47.59600 -63.39602 44673 ft 568 kts 76°
2026-05-07 10:07 47.61618 -63.28313 44668 ft 569 kts 76°
2026-05-07 10:08 47.63910 -63.17105 44666 ft 568 kts 69°
2026-05-07 10:08 47.67006 -63.06318 44673 ft 566 kts 67°
2026-05-07 10:09 47.69929 -62.95468 44687 ft 565 kts 69°
2026-05-07 10:09 47.72905 -62.84718 44685 ft 566 kts 67°
2026-05-07 10:10 47.75859 -62.73850 44691 ft 566 kts 69°
2026-05-07 10:10 47.78807 -62.62987 44703 ft 566 kts 68°
2026-05-07 10:11 47.81738 -62.52168 44706 ft 566 kts 69°
2026-05-07 10:11 47.84656 -62.41287 44721 ft 566 kts 68°
2026-05-07 10:12 47.87582 -62.30391 44719 ft 564 kts 69°
2026-05-07 10:12 47.90465 -62.19544 44738 ft 560 kts 69°
2026-05-07 10:13 47.93319 -62.08810 44738 ft 560 kts 69°
2026-05-07 10:13 47.96174 -61.97982 44742 ft 561 kts 69°
2026-05-07 10:14 47.99027 -61.87138 44753 ft 561 kts 69°
2026-05-07 10:14 48.01860 -61.76299 44760 ft 559 kts 69°
2026-05-07 10:15 48.04677 -61.65483 44745 ft 557 kts 69°
2026-05-07 10:15 48.07455 -61.54765 44771 ft 556 kts 70°
2026-05-07 10:16 48.10244 -61.43952 44776 ft 557 kts 70°
2026-05-07 10:16 48.13025 -61.33122 44807 ft 556 kts 70°
2026-05-07 10:17 48.15830 -61.22333 44798 ft 555 kts 68°
2026-05-07 10:17 48.18915 -61.11798 44822 ft 556 kts 67°
2026-05-07 10:18 48.21980 -61.01160 44819 ft 555 kts 68°
2026-05-07 10:18 48.25033 -60.90581 44804 ft 544 kts 67°
2026-05-07 10:19 48.27998 -60.80234 44836 ft 540 kts 68°
2026-05-07 10:19 48.30955 -60.69876 44832 ft 544 kts 68°
2026-05-07 10:20 48.33934 -60.59404 44848 ft 543 kts 68°
2026-05-07 10:20 48.36891 -60.48953 44866 ft 543 kts 68°
2026-05-07 10:21 48.39855 -60.38447 44856 ft 547 kts 68°
2026-05-07 10:21 48.42794 -60.27969 44473 ft 535 kts 68°
2026-05-07 10:21 48.44208 -60.22925 43866 ft 524 kts 68°
2026-05-07 10:22 48.45594 -60.17961 43712 ft 503 kts 68°
2026-05-07 10:22 48.46938 -60.13133 42965 ft 495 kts 69°
2026-05-07 10:22 48.48269 -60.08339 41816 ft 497 kts 69°
2026-05-07 10:22 48.49611 -60.03501 40652 ft 501 kts 70°
2026-05-07 10:23 48.50957 -59.98643 39521 ft 503 kts 70°
2026-05-07 10:23 48.52293 -59.93808 38359 ft 507 kts 71°
2026-05-07 10:23 48.53653 -59.88874 36939 ft 511 kts 71°
2026-05-07 10:23 48.55022 -59.83895 35659 ft 512 kts 72°
2026-05-07 10:24 48.56389 -59.78924 34435 ft 510 kts 73°
2026-05-07 10:24 48.57740 -59.74001 33222 ft 507 kts 73°
2026-05-07 10:24 48.59090 -59.69050 31962 ft 508 kts 73°
2026-05-07 10:24 48.60438 -59.64092 30799 ft 514 kts 72°
2026-05-07 10:25 48.61792 -59.59118 29630 ft 521 kts 71°
2026-05-07 10:25 48.63173 -59.54057 28369 ft 518 kts 71°
2026-05-07 10:25 48.64532 -59.49065 27124 ft 507 kts 71°
2026-05-07 10:25 48.65852 -59.44181 26006 ft 494 kts 70°
2026-05-07 10:26 48.67132 -59.39423 24943 ft 482 kts 70°
2026-05-07 10:26 48.68385 -59.34771 23948 ft 473 kts 70°
2026-05-07 10:26 48.69616 -59.30200 22514 ft 467 kts 70°
2026-05-07 10:26 48.70818 -59.25726 21196 ft 459 kts 71°
2026-05-07 10:27 48.72008 -59.21281 19925 ft 451 kts 71°
2026-05-07 10:27 48.73173 -59.16923 18707 ft 444 kts 72°
2026-05-07 10:27 48.74324 -59.12609 17425 ft 438 kts 72°
2026-05-07 10:27 48.75453 -59.08377 16264 ft 428 kts 73°
2026-05-07 10:28 48.76542 -59.04288 15214 ft 416 kts 73°
2026-05-07 10:28 48.77608 -59.00275 14254 ft 403 kts 74°
2026-05-07 10:28 48.78634 -58.96408 13734 ft 380 kts 75°
2026-05-07 10:28 48.79581 -58.92863 13718 ft 346 kts 75°
2026-05-07 10:29 48.80437 -58.89626 13716 ft 321 kts 76°
2026-05-07 10:29 48.81242 -58.86525 13715 ft 313 kts 77°
2026-05-07 10:29 48.82052 -58.83381 13721 ft 325 kts 77°
2026-05-07 10:30 48.83761 -58.76936 13736 ft 331 kts 76°
2026-05-07 10:30 48.84613 -58.73683 13758 ft 339 kts 76°
2026-05-07 10:30 48.85484 -58.70336 13755 ft 340 kts 75°
2026-05-07 10:30 48.86368 -58.66964 13755 ft 344 kts 75°
2026-05-07 10:31 48.87252 -58.63594 13759 ft 343 kts 75°
2026-05-07 10:31 48.88136 -58.60208 13756 ft 343 kts 75°
2026-05-07 10:31 48.89012 -58.56834 13758 ft 343 kts 75°
2026-05-07 10:31 48.89880 -58.53499 13756 ft 343 kts 75°
2026-05-07 10:32 48.90757 -58.50122 13759 ft 343 kts 75°
2026-05-07 10:32 48.91636 -58.46733 13758 ft 343 kts 75°
2026-05-07 10:32 48.92511 -58.43353 13778 ft 343 kts 75°
2026-05-07 10:32 48.93386 -58.39968 13783 ft 343 kts 75°
2026-05-07 10:33 48.94261 -58.36577 13775 ft 343 kts 75°
2026-05-07 10:33 48.95119 -58.33248 13775 ft 343 kts 75°
2026-05-07 10:33 48.95992 -58.29857 13780 ft 343 kts 75°
2026-05-07 10:33 48.96862 -58.26476 13772 ft 343 kts 75°
2026-05-07 10:34 48.97730 -58.23093 13778 ft 343 kts 76°
2026-05-07 10:34 48.98595 -58.19714 13776 ft 343 kts 76°
2026-05-07 10:34 48.99464 -58.16298 13771 ft 363 kts 75°
2026-05-07 10:34 49.00416 -58.12514 13874 ft 392 kts 75°
2026-05-07 10:35 49.01423 -58.08590 14013 ft 409 kts 74°
2026-05-07 10:35 49.02477 -58.04523 14113 ft 417 kts 74°
2026-05-07 10:35 49.03538 -58.00350 13522 ft 420 kts 74°
2026-05-07 10:35 49.04574 -57.96255 12989 ft 408 kts 74°
2026-05-07 10:36 49.05585 -57.92262 12457 ft 401 kts 74°
2026-05-07 10:36 49.06577 -57.88329 11937 ft 397 kts 74°
2026-05-07 10:36 49.07554 -57.84454 11438 ft 392 kts 74°
2026-05-07 10:36 49.08520 -57.80638 10922 ft 374 kts 73°
2026-05-07 10:37 49.09428 -57.77052 10444 ft 353 kts 73°
2026-05-07 10:37 49.10282 -57.73642 9992 ft 335 kts 74°
2026-05-07 10:37 49.11095 -57.70378 9537 ft 322 kts 74°
2026-05-07 10:37 49.11885 -57.67215 9105 ft 315 kts 74°
2026-05-07 10:38 49.12663 -57.64100 8686 ft 313 kts 74°
2026-05-07 10:38 49.13436 -57.61003 8284 ft 313 kts 74°
2026-05-07 10:38 49.14204 -57.57920 7870 ft 313 kts 74°
2026-05-07 10:38 49.14976 -57.54821 7465 ft 311 kts 74°
2026-05-07 10:39 49.15740 -57.51753 7060 ft 308 kts 74°
2026-05-07 10:39 49.16501 -57.48690 6653 ft 305 kts 75°
2026-05-07 10:39 49.17249 -57.45670 6238 ft 303 kts 75°
2026-05-07 10:39 49.17988 -57.42689 5831 ft 295 kts 75°
2026-05-07 10:40 49.18703 -57.39809 5448 ft 285 kts 76°
2026-05-07 10:40 49.19384 -57.37047 5076 ft 277 kts 76°
2026-05-07 10:40 49.20050 -57.34349 4711 ft 264 kts 77°
2026-05-07 10:40 49.20681 -57.31798 4354 ft 251 kts 77°
2026-05-07 10:41 49.21288 -57.29316 4037 ft 247 kts 77°
2026-05-07 10:41 49.21929 -57.26877 3712 ft 251 kts 69°
2026-05-07 10:41 49.23032 -57.24737 3404 ft 258 kts 53°
2026-05-07 10:41 49.23844 -57.23400 3210 ft 259 kts 52°
2026-05-07 10:42 49.25097 -57.21317 2791 ft 277 kts 52°
2026-05-07 10:42 49.26377 -57.19152 2453 ft 268 kts 52°
2026-05-07 10:42 49.27988 -57.16496 2194 ft 243 kts 51°
2026-05-07 10:42 49.28748 -57.15279 2084 ft 227 kts 51°
2026-05-07 10:43 49.29996 -57.14012 1816 ft 212 kts 15°
2026-05-07 10:43 49.31343 -57.14326 1506 ft 192 kts 323°
2026-05-07 10:43 49.32196 -57.15653 1531 ft 160 kts 303°
2026-05-07 10:43 49.32679 -57.16964 1519 ft 127 kts 270°
2026-05-07 10:44 49.32853 -57.18204 1628 ft 114 kts 272°
2026-05-07 10:44 49.32728 -57.19309 1566 ft 110 kts 231°
2026-05-07 10:44 49.32390 -57.20360 1744 ft 110 kts 236°
2026-05-07 10:44 49.32308 -57.20646 1778 ft 110 kts 236°
2026-05-07 10:46 49.32301 -57.20671 1782 ft 110 kts 236°
2026-05-07 10:46 49.31916 -57.21615 1872 ft 99 kts 218°
2026-05-07 10:46 49.31496 -57.22372 1972 ft 87 kts 220°
2026-05-07 10:46 49.31091 -57.23061 2017 ft 90 kts 219°
2026-05-07 10:47 49.30659 -57.23778 2014 ft 93 kts 219°
2026-05-07 10:47 49.30218 -57.24506 2031 ft 94 kts 217°
2026-05-07 10:47 49.29754 -57.25245 2025 ft 97 kts 218°
2026-05-07 10:47 49.29295 -57.25989 2026 ft 96 kts 218°
2026-05-07 10:48 49.28832 -57.26729 2002 ft 97 kts 217°
2026-05-07 10:48 49.28362 -57.27492 1882 ft 101 kts 218°
2026-05-07 10:48 49.27860 -57.28292 1753 ft 106 kts 218°
2026-05-07 10:48 49.27359 -57.29105 1626 ft 103 kts 219°
2026-05-07 10:49 49.26863 -57.29900 1494 ft 104 kts 220°
2026-05-07 10:49 49.26355 -57.30711 1367 ft 111 kts 219°
2026-05-07 10:49 49.25812 -57.31588 1218 ft 115 kts 221°
2026-05-07 10:49 49.25258 -57.32473 1074 ft 119 kts 221°
2026-05-07 10:50 49.24684 -57.33402 910 ft 120 kts 220°
2026-05-07 10:50 49.24105 -57.34309 723 ft 120 kts 222°
2026-05-07 10:50 49.23496 -57.35271 670 ft 128 kts 223°
2026-05-07 10:50 49.22884 -57.36275 482 ft 129 kts 221°
2026-05-07 10:51 49.22272 -57.37264 306 ft 125 kts 223°
2026-05-07 10:51 49.21679 -57.38219 90 ft 122 kts 225°
2026-05-07 10:51 49.21145 -57.39069 50 ft 90 kts 226°
2026-05-07 10:51 49.20830 -57.39579 52 ft 44 kts 225°
2026-05-07 10:52 49.20751 -57.39734 48 ft 11 kts 276°
2026-05-07 10:52 49.20782 -57.39793 49 ft 7 kts 321°
2026-05-07 10:52 49.20842 -57.39869 54 ft 9 kts 343°
2026-05-07 10:52 49.20891 -57.39850 53 ft 7 kts 36°
2026-05-07 10:53 49.20902 -57.39846 55 ft 0 kts 359°
2026-05-07 10:53 49.20913 -57.39849 53 ft 7 kts 350°
2026-05-07 10:53 49.20946 -57.39855 54 ft 3 kts 359°
2026-05-07 10:53 49.20964 -57.39853 53 ft 3 kts
2026-05-07 10:54 49.20966 -57.39853 55 ft 0 kts